Weather History for KOGD - January, 2013

Change the Weather History Date:

Wednesday, January 23, 2013

  Actual Average Record
Temperature  
Mean Temperature 14 °F -  
Max Temperature 17 °F 37 °F 56 °F (1943)
Min Temperature 10 °F 19 °F -20 °F (1937)
Degree Days  
Heating Degree Days 52    
Moisture  
Dew Point 8 °F    
Average Humidity 82    
Maximum Humidity 91    
Minimum Humidity 73    
Precipitation  
Precipitation 0.00 in - - ()
Sea Level Pressure  
Sea Level Pressure 30.40 in    
Wind  
Wind Speed 2 mph (ENE)    
Max Wind Speed 7 mph    
Max Gust Speed -    
Visibility 2 miles    
Events Fog , Snow    
Averages and records for this station are not official NWS values.
T = Trace of Precipitation, MM = Missing Value Source: NWS Daily Summary

Daily Weather History Graph

Daily Weather History Graph

Search for Another Location

Airport or City:

Trip Planner

Search our weather history database for the weather conditions in past years. The results will help you decide how hot, cold, wet, or windy it might be!

Date:

Astronomy

Jan. 23, 2013 Rise Set
Actual Time 7:46 AM MST 5:33 PM MST
Civil Twilight 7:16 AM MST 6:03 PM MST
Nautical Twilight 6:43 AM MST 6:37 PM MST
Astronomical Twilight 6:10 AM MST 7:10 PM MST
Moon 2:47 PM MST (1/23) 5:01 AM MST (1/23)
Length of Visible Light 10h 47m
Length of Day
9h 47m
Waxing Gibbous, 89% of the Moon is Illuminated
Jan 23
Waxing Gibbous
Jan 26
Full
Feb 3
Last Quarter
Feb 10
New
Feb 17
First Quarter

Hourly Weather History & Observations

Time (MST) Temp. Windchill Dew Point Humidity Pressure Visibility Wind Dir Wind Speed Gust Speed Precip Events Conditions
12:53 AM 10.9 °F 2.9 °F 7.0 °F 84% 30.55 in 1.8 mi East 4.6 mph - 0.00 in Snow Light Snow
1:08 AM 10.4 °F -0.4 °F 6.8 °F 85% 30.36 in 2.5 mi East 6.9 mph - 0.00 in   Overcast
1:26 AM 10.4 °F 4.0 °F 6.8 °F 85% 30.36 in 3.0 mi ENE 3.5 mph - 0.00 in   Overcast
1:53 AM 10.9 °F - 7.0 °F 84% 30.52 in 2.5 mi Calm Calm - 0.00 in   Overcast
2:03 AM 10.4 °F - 6.8 °F 85% 30.36 in 0.8 mi Calm Calm - N/A   Overcast
2:20 AM 10.4 °F 4.0 °F 6.8 °F 85% 30.34 in 1.5 mi SE 3.5 mph - N/A   Overcast
2:35 AM 10.4 °F - 6.8 °F 85% 30.35 in 0.5 mi Calm Calm - N/A Fog Light Freezing Fog
2:42 AM 12.2 °F - 6.8 °F 79% 30.35 in 0.5 mi Calm Calm - N/A   Haze
2:53 AM 12.0 °F - 8.1 °F 84% 30.51 in 0.2 mi Calm Calm - N/A Fog Light Freezing Fog
3:33 AM 12.2 °F 6.1 °F 8.6 °F 85% 30.36 in 1.0 mi NNW 3.5 mph - N/A   Haze
3:50 AM 12.2 °F 2.9 °F 6.8 °F 79% 30.36 in 2.0 mi ENE 5.8 mph - N/A   Haze
3:53 AM 12.0 °F 2.7 °F 7.0 °F 80% 30.54 in 1.8 mi ENE 5.8 mph - 0.00 in Snow Light Snow
4:22 AM 12.2 °F 6.1 °F 6.8 °F 79% 30.35 in 0.8 mi East 3.5 mph - 0.00 in Snow Light Snow
4:32 AM 12.2 °F - 6.8 °F 79% 30.34 in 1.0 mi Calm Calm - 0.00 in   Haze
4:53 AM 12.0 °F - 7.0 °F 80% 30.52 in 0.8 mi Calm Calm - 0.00 in   Haze
5:19 AM 12.2 °F 6.1 °F 6.8 °F 79% 30.35 in 1.0 mi ESE 3.5 mph - N/A   Haze
5:53 AM 12.0 °F - 7.0 °F 80% 30.53 in 0.8 mi Calm Calm - N/A   Haze
6:13 AM 12.2 °F - 6.8 °F 79% 30.34 in 1.0 mi Calm Calm - 0.00 in Snow Light Snow
6:40 AM 12.2 °F 6.1 °F 6.8 °F 79% 30.33 in 2.0 mi ESE 3.5 mph - 0.00 in   Haze
6:53 AM 12.0 °F 5.9 °F 6.1 °F 77% 30.51 in 2.5 mi SE 3.5 mph - 0.00 in   Haze
7:11 AM 10.4 °F 2.2 °F 5.0 °F 79% 30.32 in 3.0 mi South 4.6 mph - N/A   Haze
7:53 AM 10.0 °F - 3.9 °F 76% 30.53 in 2.5 mi Calm Calm - N/A   Haze
8:02 AM 10.4 °F - 5.0 °F 79% 30.34 in 1.0 mi Calm Calm - N/A   Haze
8:13 AM 12.2 °F - 6.8 °F 79% 30.34 in 0.8 mi Calm Calm - 0.00 in Snow Light Snow
8:25 AM 12.2 °F - 6.8 °F 79% 30.34 in 0.5 mi Calm Calm - 0.00 in Snow Snow
8:43 AM 14.0 °F 8.2 °F 8.6 °F 79% 30.35 in 0.8 mi NE 3.5 mph - 0.00 in Snow Light Snow
8:53 AM 14.0 °F - 7.0 °F 74% 30.53 in 0.8 mi Calm Calm - 0.00 in Snow Light Snow
9:06 AM 14.0 °F 6.5 °F 6.8 °F 73% 30.34 in 1.2 mi North 4.6 mph - 0.00 in Snow Light Snow
9:49 AM 12.2 °F - 8.6 °F 85% 30.35 in 2.5 mi Calm Calm - 0.00 in   Haze
9:51 AM 12.2 °F - 8.6 °F 85% 30.35 in 3.0 mi Calm Calm - 0.00 in   Haze
9:53 AM 12.9 °F - 8.1 °F 81% 30.53 in 3.0 mi Calm Calm - 0.00 in   Haze
10:14 AM 15.8 °F - 10.4 °F 79% 30.35 in 3.0 mi Calm Calm - N/A   Haze
10:36 AM 15.8 °F 10.2 °F 8.6 °F 73% 30.35 in 2.5 mi NNE 3.5 mph - N/A   Haze
10:53 AM 16.0 °F - 10.9 °F 81% 30.51 in 3.0 mi Calm Calm - N/A   Haze
11:00 AM 15.8 °F - 10.4 °F 79% 30.35 in 2.5 mi Calm Calm - N/A   Overcast
11:10 AM 15.8 °F - 10.4 °F 79% 30.36 in 3.0 mi Calm Calm - N/A   Overcast
11:44 AM 15.8 °F - 12.2 °F 86% 30.35 in 4.0 mi Calm Calm - N/A   Scattered Clouds
11:53 AM 15.1 °F - 12.9 °F 91% 30.51 in 4.0 mi Calm Calm - N/A   Partly Cloudy
12:53 PM 16.0 °F - 10.9 °F 81% 30.47 in 4.0 mi Calm Calm - N/A   Haze
1:53 PM 17.1 °F 11.7 °F 12.0 °F 81% 30.43 in 4.0 mi WNW 3.5 mph - N/A   Haze
2:53 PM 15.1 °F 5.2 °F 10.0 °F 80% 30.43 in 3.0 mi NW 6.9 mph - N/A   Haze
3:24 PM 14.0 °F 5.1 °F 10.4 °F 86% 30.29 in 2.5 mi NW 5.8 mph - N/A   Clear
3:39 PM 14.0 °F 8.2 °F 10.4 °F 86% 30.28 in 3.0 mi NW 3.5 mph - N/A   Clear
3:53 PM 14.0 °F 5.1 °F 9.0 °F 80% 30.45 in 2.5 mi WNW 5.8 mph - N/A   Haze
4:53 PM 15.1 °F - 10.0 °F 80% 30.42 in 3.0 mi Calm Calm - N/A   Haze
5:53 PM 12.0 °F - 8.1 °F 84% 30.43 in 3.0 mi Calm Calm - N/A   Clear
6:53 PM 10.0 °F - 7.0 °F 87% 30.44 in 3.0 mi Calm Calm - N/A   Clear
7:38 PM 12.2 °F - 8.6 °F 85% 30.26 in 2.5 mi Calm Calm - N/A   Clear
7:46 PM 10.4 °F - 6.8 °F 85% 30.26 in 3.0 mi Calm Calm - N/A   Clear
7:53 PM 10.9 °F - 7.0 °F 84% 30.44 in 3.0 mi Calm Calm - N/A   Clear
8:53 PM 12.0 °F 5.9 °F 7.0 °F 80% 30.41 in 4.0 mi South 3.5 mph - N/A   Haze
9:53 PM 12.0 °F - 9.0 °F 88% 30.41 in 4.0 mi Calm Calm - N/A   Clear
10:53 PM 12.0 °F 5.9 °F 8.1 °F 84% 30.41 in 4.0 mi SE 3.5 mph - N/A   Clear
11:53 PM 15.1 °F - 10.9 °F 84% 30.43 in 4.0 mi Calm Calm - N/A   Clear